| time (UTC) | temp F | wind direction | speed knots | gust knots | rain 1hr in | rain 24hr in | rain mn in | humidity % | barometer mb |
| 20260506103050 | 48 | 198 | 0.9 | 3.5 | 0.00 | 0.04 | 0.00 | 58 | 1011.4 |
| 20260506101533 | 48 | 147 | 1.7 | 4.3 | 0.00 | 0.04 | 0.00 | 59 | 1011.3 |
| 20260506100036 | 48 | 159 | 0.9 | 2.6 | 0.00 | 0.08 | 0.00 | 61 | 1011.3 |
| 20260506094530 | 48 | 169 | 0.0 | 2.6 | 0.00 | 0.08 | 0.00 | 61 | 1011.3 |
| 20260506093028 | 48 | 208 | 0.0 | 0.0 | 0.00 | 0.08 | 0.00 | 62 | 1011.2 |
| 20260506091527 | 48 | 146 | 1.7 | 3.5 | 0.00 | 0.08 | 0.00 | 62 | 1011.1 |
| 20260506090029 | 48 | 164 | 0.9 | 3.5 | 0.00 | 0.13 | 0.00 | 63 | 1011.0 |
| 20260506084522 | 48 | 172 | 0.9 | 1.7 | 0.00 | 0.13 | 0.00 | 65 | 1011.0 |
| 20260506083020 | 47 | 163 | 0.0 | 0.0 | 0.00 | 0.13 | 0.00 | 66 | 1011.2 |
| 20260506081520 | 47 | 158 | 0.0 | 0.0 | 0.00 | 0.13 | 0.00 | 65 | 1011.2 |
| 20260506073046 | 48 | 157 | 0.0 | 0.0 | 0.00 | 0.18 | 0.00 | 62 | 1011.2 |
| 20260506071538 | 48 | 225 | 0.0 | 0.0 | 0.00 | 0.18 | 0.00 | 62 | 1011.0 |
| 20260506061529 | 50 | 168 | 0.9 | 1.7 | 0.00 | 0.18 | 0.18 | 60 | 1011.0 |
| 20260506044512 | 54 | 325 | 0.0 | 0.0 | 0.00 | 0.18 | 0.18 | 52 | 1010.5 |
| 20260506043013 | 55 | 285 | 0.0 | 7.0 | 0.00 | 0.18 | 0.18 | 51 | 1010.2 |
| 20260506041506 | 55 | 18 | 0.0 | 3.5 | 0.00 | 0.18 | 0.18 | 50 | 1009.7 |
| 20260506040014 | 56 | 289 | 0.0 | 5.2 | 0.00 | 0.18 | 0.18 | 49 | 1009.7 |
| 20260506034512 | 57 | 342 | 0.9 | 3.5 | 0.00 | 0.18 | 0.18 | 48 | 1009.6 |
| 20260506033003 | 57 | 354 | 1.7 | 5.2 | 0.00 | 0.18 | 0.18 | 47 | 1009.2 |
| 20260506031502 | 57 | 59 | 0.0 | 4.3 | 0.00 | 0.18 | 0.18 | 44 | 1009.0 |
| 20260506030002 | 58 | 8 | 0.0 | 3.5 | 0.00 | 0.18 | 0.18 | 43 | 1008.7 |
| 20260506024619 | 58 | 53 | 0.0 | 5.2 | 0.00 | 0.18 | 0.18 | 42 | 1008.6 |
| 20260506023100 | 59 | 334 | 1.7 | 6.1 | 0.00 | 0.18 | 0.18 | 41 | 1008.3 |
| 20260506021558 | 59 | 257 | 0.9 | 5.2 | 0.00 | 0.18 | 0.18 | 38 | 1007.9 |
| 20260506020058 | 60 | 328 | 0.0 | 6.1 | 0.00 | 0.18 | 0.18 | 36 | 1007.7 |
| 20260506014556 | 61 | 41 | 0.9 | 5.2 | 0.00 | 0.18 | 0.18 | 34 | 1007.4 |
| 20260506014501 | 61 | 295 | 0.0 | 5.2 | 0.00 | 0.18 | 0.18 | 34 | 1007.5 |
| 20260506013107 | 62 | 349 | 2.6 | 10.4 | 0.00 | 0.18 | 0.18 | 33 | 1007.5 |
| 20260506011604 | 63 | 328 | 2.6 | 10.4 | 0.00 | 0.18 | 0.18 | 32 | 1007.1 |
| 20260506010050 | 64 | 338 | 3.5 | 7.8 | 0.00 | 0.18 | 0.18 | 31 | 1007.0 |
| 20260506004548 | 65 | 21 | 5.2 | 12.2 | 0.00 | 0.18 | 0.18 | 29 | 1006.8 |
| 20260506003047 | 66 | 333 | 3.5 | 7.0 | 0.00 | 0.18 | 0.18 | 29 | 1006.7 |
| 20260506001546 | 67 | 330 | 1.7 | 6.1 | 0.00 | 0.18 | 0.18 | 29 | 1006.6 |
| 20260506000044 | 67 | 198 | 1.7 | 7.0 | 0.00 | 0.18 | 0.18 | 30 | 1006.2 |
| 20260505234541 | 68 | 358 | 2.6 | 10.4 | 0.00 | 0.18 | 0.18 | 29 | 1006.2 |
| 20260505233039 | 68 | 320 | 2.6 | 9.6 | 0.00 | 0.18 | 0.18 | 29 | 1006.0 |
| 20260505231538 | 69 | 312 | 1.7 | 7.8 | 0.00 | 0.18 | 0.18 | 31 | 1005.9 |
| 20260505230050 | 69 | 88 | 1.7 | 5.2 | 0.00 | 0.18 | 0.18 | 32 | 1005.9 |
| 20260505224524 | 69 | 328 | 2.6 | 7.8 | 0.00 | 0.18 | 0.18 | 32 | 1006.0 |
| 20260505223027 | 69 | 120 | 2.6 | 8.7 | 0.00 | 0.18 | 0.18 | 34 | 1006.1 |
| 20260505221521 | 68 | 160 | 2.6 | 7.0 | 0.00 | 0.18 | 0.18 | 35 | 1006.1 |
| 20260505220021 | 67 | 53 | 7.0 | 12.2 | 0.00 | 0.18 | 0.18 | 36 | 1006.0 |
| 20260505214515 | 68 | 289 | 2.6 | 13.0 | 0.00 | 0.18 | 0.18 | 35 | 1006.2 |
| 20260505213013 | 68 | 64 | 2.6 | 14.8 | 0.00 | 0.18 | 0.18 | 37 | 1006.4 |
| 20260505211512 | 69 | 317 | 4.3 | 14.8 | 0.00 | 0.18 | 0.18 | 36 | 1006.7 |
| 20260505210010 | 69 | 343 | 4.3 | 12.2 | 0.00 | 0.18 | 0.18 | 36 | 1006.6 |
| 20260505204609 | 69 | 264 | 0.9 | 9.6 | 0.00 | 0.18 | 0.18 | 39 | 1006.4 |
| 20260505203045 | 68 | 290 | 3.5 | 10.4 | 0.00 | 0.18 | 0.18 | 40 | 1006.2 |
| 20260505201534 | 69 | 158 | 6.1 | 13.0 | 0.00 | 0.18 | 0.18 | 40 | 1006.4 |
| 20260505200035 | 70 | 86 | 3.5 | 14.8 | 0.00 | 0.18 | 0.18 | 41 | 1006.5 |
| 20260505194530 | 69 | 290 | 3.5 | 12.2 | 0.00 | 0.18 | 0.18 | 39 | 1006.5 |
| 20260505194528 | 69 | 276 | 3.5 | 12.2 | 0.00 | 0.18 | 0.18 | 39 | 1006.5 |
| 20260505193025 | 69 | 13 | 5.2 | 10.4 | 0.00 | 0.18 | 0.18 | 42 | 1006.2 |
| 20260505191523 | 68 | 45 | 5.2 | 13.0 | 0.00 | 0.18 | 0.18 | 43 | 1006.5 |
| 20260505190049 | 68 | 290 | 3.5 | 10.4 | 0.00 | 0.18 | 0.18 | 45 | 1006.8 |
| 20260505184547 | 67 | 357 | 0.9 | 9.6 | 0.00 | 0.18 | 0.18 | 48 | 1006.8 |
| 20260505183053 | 66 | 15 | 3.5 | 9.6 | 0.00 | 0.18 | 0.18 | 48 | 1007.3 |
| 20260505181543 | 66 | 229 | 3.5 | 19.1 | 0.00 | 0.18 | 0.18 | 51 | 1007.4 |
| 20260505180041 | 66 | 63 | 4.3 | 7.0 | 0.00 | 0.18 | 0.18 | 52 | 1007.4 |
| 20260505174546 | 67 | 340 | 0.0 | 13.0 | 0.00 | 0.18 | 0.18 | 55 | 1007.3 |
| 20260505173014 | 65 | 63 | 1.7 | 9.6 | 0.00 | 0.18 | 0.18 | 56 | 1007.0 |
| 20260505171503 | 64 | 271 | 1.7 | 8.7 | 0.00 | 0.18 | 0.18 | 59 | 1007.2 |
| 20260505170057 | 63 | 337 | 1.7 | 8.7 | 0.00 | 0.18 | 0.18 | 63 | 1007.2 |
| 20260505164601 | 62 | 221 | 0.0 | 11.3 | 0.00 | 0.18 | 0.18 | 69 | 1007.1 |
| 20260505163056 | 60 | 64 | 3.5 | 7.0 | 0.00 | 0.18 | 0.18 | 74 | 1007.2 |
| 20260505161548 | 59 | 74 | 0.0 | 4.3 | 0.00 | 0.18 | 0.18 | 77 | 1007.5 |
| 20260505153059 | 57 | 337 | 0.0 | 2.6 | 0.00 | 0.18 | 0.18 | 81 | 1007.5 |
| 20260505151553 | 57 | 329 | 0.9 | 2.6 | 0.00 | 0.18 | 0.18 | 80 | 1007.2 |
| 20260505124527 | 57 | 21 | 2.6 | 7.0 | 0.02 | 0.18 | 0.18 | 73 | 1005.3 |
| 20260505123023 | 57 | 155 | 0.0 | 17.4 | 0.02 | 0.18 | 0.18 | 73 | 1005.0 |
| 20260505121521 | 57 | 293 | 7.0 | 14.8 | 0.02 | 0.18 | 0.18 | 70 | 1005.8 |
| 20260505120019 | 57 | 160 | 0.0 | 11.3 | 0.03 | 0.18 | 0.18 | 71 | 1005.6 |
| 20260505114531 | 58 | 323 | 0.0 | 6.1 | 0.02 | 0.16 | 0.16 | 68 | 1005.0 |
| 20260505113015 | 58 | 269 | 4.3 | 12.2 | 0.02 | 0.16 | 0.16 | 68 | 1004.9 |
| 20260505111514 | 57 | 161 | 2.6 | 10.4 | 0.02 | 0.16 | 0.16 | 71 | 1004.8 |